Вернуться в каталог

STARLINK-34707

АктивенСвязьSSO
NORAD 65176·PAYLOAD·🇺🇸 United States

Запущен Aug 14, 2025 с Vandenberg Space Force Base

Loading…

Ближайшие Пролёты (ближайшие 24 часа)

TLE

СвежийSource: CelesTrak SupGP

Эпоха: Sep 15, 2026, 02:24 UTC

1 65176C 25175C   26258.10048611  .00053610  00000+0  16639-2 0  2588
2 65176  97.2846 127.1090 0002227  86.2956 227.7136 15.33416673    10

Отслеживайте STARLINK-34707 в реальном времени с AllMySat

Download on the App Store